www.pogodaiklimat.ru

Погода и климат >> Архив погоды >> Индонезия >> Денпасар


ПОГОДА в Денпасаре

  • Прогноз погоды в Денпасаре
  • Монитор погоды в Денпасаре

АРХИВ ПОГОДЫ в Денпасаре

Время (UTC), дата Ветер
(напр.,м/с)
 
Видим.   Явления Облачность Т
(С)
Тd
(С)
f
(%)
Тe
(С)
Тes
(С)
Комфортность P
(гПа)
Po
(гПа)
Тmin
(С)
Tmax
(С)
R
(мм)
R24
(мм)
S
(см)
00 18.03 С 3 10 км 5/3 500 м
[Cu med, cong Ci fib]
+27.8 +24.1 80 +39 +41 очень
душно
1009.6 1009.1 +24.6 0.3
03 18.03 З 5 10 км 6/4 500 м
[Cu med, cong Ci sp]
+29.0 +25.1 80 +42 +48 опасность
перегрева
1009.9 1009.4
06 18.03 З 5 10 км 9/3 480 м
[Cb cap Ac trans Ci sp]
+29.4 +25.5 80 +43 +47 опасность
перегрева
1006.9 1006.4
09 18.03 З 4 10 км гроза без осадков 10/4 480 м
[Cb cap Ac As Ci sp]
+28.0 +24.7 82 +40 +40 очень
душно
1007.1 1006.6
12 18.03 СЗ 1 7000 м гроза, ливневой дождь 10/4 480 м
[Cb cap Ac As Ci sp]
+25.0 +25.0 100 +36 +36 очень
душно
1009.1 1008.6 +29.9 2
15 18.03 ЮЗ 2 10 км {гроза, дождь} 10/6 500 м
[Cu med, cong Ac trans Ci sp]
+26.1 +24.7 92 +37 +37 очень
душно
1010.2 1009.7 0.4
18 18.03 ЮЗ 3 5000 м слаб. дождь 10/6 450 м
[Cu med, cong Ac trans Ci sp]
+25.0 +24.7 98 +35 +35 очень
душно
1008.5 1008.0 7
21 18.03 СВ 1 10 км {дождь} 9/3 500 м
[Cu med, cong Ac trans Ci sp]
+25.2 +24.9 98 +36 +36 очень
душно
1007.5 1007.0 2
00 19.03 СЗ 4 10 км {дождь} 9/3 500 м
[Cu med, cong Ac trans Ci fib]
+27.4 +25.2 88 +40 +41 очень
душно
1008.8 1008.3 +24.9 12
03 19.03 З 4 10 км 6/3 500 м
[Cu med, cong Ac trans Ci fib]
+29.0 +24.4 76 +41 +48 опасность
перегрева
1009.2 1008.7
06 19.03 З 6 10 км 6/3 480 м
[Cb cap Ac trans Ci fib]
+29.8 +25.0 75 +43 +47 опасность
перегрева
1006.5 1006.0
09 19.03 З 5 10 км 10/5 480 м
[Cb cap Ac trans Ci sp]
+29.0 +25.5 81 +43 +43 опасность
перегрева
1005.7 1005.2
12 19.03 З 5 10 км 10/5 480 м
[Cb cap Ac trans Ci sp]
+28.6 +24.9 80 +41 +41 опасность
перегрева
1008.0 1007.5 +30.6
15 19.03 СЗ 3 10 км в посл. час дождь 10/5 480 м
[Cu med, cong Ac trans Ci sp]
+27.5 +24.2 82 +38 +38 очень
душно
1008.9 1008.4 1
18 19.03 З 4 10 км {дождь} 9/4 500 м
[Cu med, cong Ac trans Ci sp]
+27.3 +26.1 93 +41 +41 опасность
перегрева
1006.7 1006.2 1
21 19.03 СЗ 4 10 км 9/3 500 м
[Cu med, cong Ac trans Ci sp]
+27.3 +25.3 89 +40 +40 очень
душно
1007.3 1006.8
00 20.03 С 1 8000 м в посл. час дождь 10/3 500 м
[Cu med, cong Ac As Ci sp]
+27.2 +24.5 85 +38 +40 очень
душно
1008.7 1008.2 +25.4 0.0
03 20.03 З 5 10 км 9/3 500 м
[Cu med, cong Ac trans Ci sp]
+29.7 +25.7 79 +44 +48 опасность
перегрева
1008.2 1007.7
06 20.03 З 6 10 км 8/3 500 м
[Cu med, cong Ci sp]
+31.0 +25.5 73 +46 +50 опасность
перегрева
1006.1 1005.6
09 20.03 З 5 10 км 9/3 500 м
[Cu med, cong Ac trans Ci sp]
+29.6 +24.8 75 +42 +43 опасность
перегрева
1005.6 1005.1
12 20.03 З 4 10 км 10/5 500 м
[Cu med, cong Ac trans Ci sp]
+28.7 +26.0 85 +43 +43 опасность
перегрева
1007.6 1007.1 +31.2
15 20.03 СЗ 3 5000 м слаб. дождь 10/6 480 м
[Cu Sc Ac As Ci sp]
+26.7 +26.3 98 +41 +41 опасность
перегрева
1009.0 1008.5 4
18 20.03 З 4 10 км зарница {дождь} 10/6 480 м
[Cb cap Ac As Ci sp]
+28.2 +26.2 89 +43 +43 опасность
перегрева
1007.8 1007.3 0.0
21 20.03 С 2 10 км в посл. час дождь 10/5 480 м
[Cu med, cong Ac As Ci sp]
+26.7 +26.2 97 +40 +40 очень
душно
1007.3 1016.8 0.0
00 21.03 З 4 10 км {дождь} 10/5 480 м
[Cu med, cong Ac As Ci sp]
+28.4 +25.7 85 +42 +43 опасность
перегрева
1008.6 1008.1 +26.7 4
03 21.03 З 5 10 км 9/3 500 м
[Cu med, cong Ac trans Ci fib]
+30.7 +25.8 75 +46 +50 опасность
перегрева
1009.5 1008.9
06 21.03 ЮЗ 5 10 км 8/3 500 м
[Cu med, cong Ac trans Ci fib]
+31.7 +26.3 73 +48 +52 опасность
перегрева
1007.5 1006.9
09 21.03 З 8 10 км 10/4 500 м
[Cu med, cong Ac trans Cs]
+30.2 +25.6 76 +44 +45 опасность
перегрева
1005.8 1005.3
12 21.03 З 3 8000 м слаб. ливневой дождь, в посл. час гроза 10/6 480 м
[Cu Sc Ac As Cs]
+26.3 +25.9 98 +39 +39 очень
душно
1008.2 1007.7 +31.8 9
15 21.03 С 3 8000 м гроза без осадков 10/4 480 м
[Cb cap Ac As Cs]
+26.5 +26.3 99 +40 +40 очень
душно
1010.4 1009.9 14
18 21.03 З 6 2500 м гроза, ливневой дождь 10/8 400 м
[Cb cap Ac As]
+25.1 +25.1 100 +36 +36 очень
душно
1009.3 1008.8 18
21 21.03 СЗ 2 10 км в посл. час гроза {дождь} 10/4 450 м
[Cb cap Ac trans Cs]
+27.1 +25.5 91 +40 +40 очень
душно
1008.2 1007.7 10
00 22.03 СЗ 3 10 км {гроза, дождь} 9/1 500 м
[Cu med, cong Ac trans Cs]
+27.8 +25.3 86 +40 +42 очень
душно
1009.0 1008.5 +24.8 51
03 22.03 З 4 10 км 8/1 500 м
[Cu med, cong Cc]
+30.3 +25.0 73 +43 +53 опасность
перегрева
1009.4 1008.9
06 22.03 З 5 10 км 5/1 500 м
[Cu med, cong Ci fib]
+31.1 +26.5 77 +48 +56 опасность
перегрева
1007.2 1006.7
09 22.03 ЮЗ 5 10 км гроза без осадков 8/3 480 м
[Cb cap Ac trans Cs]
+29.6 +25.0 76 +42 +43 опасность
перегрева
1007.0 1006.5
12 22.03 З 2 9000 м гроза, ливневой дождь 10/5 480 м
[Cb cap Ac As Ci sp]
+26.8 +25.6 93 +39 +39 очень
душно
1008.5 1008.0 +31.4 0.9
15 22.03 СЗ 3 5000 м слаб. ливневой дождь, в посл. час гроза 10/5 480 м
[Cb cap Ac As Ci sp]
+26.6 +25.7 95 +39 +39 очень
душно
1009.9 1009.4 8
18 22.03 СЗ 4 8000 м в посл. час гроза {дождь} 10/5 480 м
[Cb cap Ac As Ci sp]
+27.3 +24.8 86 +39 +39 очень
душно
1009.3 1008.8 5
21 22.03 З 5 10 км 10/4 480 м
[Cu med, cong Ac As Ci sp]
+27.0 +25.0 89 +39 +39 очень
душно
1007.4 1006.9
00 23.03 СЗ 3 10 км 10/3 540 м
[Cu med, cong Ac As Ci sp]
+28.3 +25.4 84 +41 +43 опасность
перегрева
1008.8 1008.3 +25.3 14
03 23.03 З 5 10 км 10/3 500 м
[Cu med, cong Ac As Ci fib]
+30.8 +24.1 68 +43 +46 опасность
перегрева
1008.9 1008.4
06 23.03 З 5 10 км 10/5 480 м
[Cu med, cong Ac As Ci sp]
+30.2 +25.4 76 +44 +47 опасность
перегрева
1007.2 1006.7
09 23.03 З 6 4000 м гроза, ливневой дождь 10/4 480 м
[Cb cap Ac As Ci sp]
+26.7 +25.5 93 +39 +39 очень
душно
1006.5 1006.0 0.9
12 23.03 СЗ 3 10 км в посл. час гроза {дождь} 10/4 480 м
[Cb cap Ac As Ci sp]
+28.1 +26.3 90 +43 +43 опасность
перегрева
1008.3 1007.8 +31.0 2
15 23.03 СЗ 6 5000 м гроза, ливневой дождь 10/8 450 м
[Cb cap Ac As Ci sp]
+26.5 +25.0 91 +38 +38 очень
душно
1010.2 1009.7 0.8
18 23.03 З 6 6000 м слаб. ливневой дождь, в посл. час гроза 10/5 450 м
[Cu Sc Ac As Cs]
+25.3 +24.2 94 +35 +35 очень
душно
1008.8 1008.3 5
21 23.03 СВ 2 7000 м в посл. час дождь 10/3 480 м
[Cu med, cong Ac As Cs]
+24.8 +24.6 99 +35 +35 очень
душно
1008.2 1007.7 0.5
00 24.03 СЗ 2 10 км 9/3 500 м
[Cu med, cong Ac trans Cs]
+27.2 +25.2 89 +39 +41 очень
душно
1008.9 1008.4 +24.6 9
03 24.03 З 7 10 км 6/1 500 м
[Cu med, cong Cs]
+29.8 +25.8 79 +44 +49 опасность
перегрева
1009.0 1008.5
06 24.03 З 6 10 км 6/3 480 м
[Cb cap Ci fib]
+30.7 +26.1 77 +46 +51 опасность
перегрева
1007.1 1006.6
09 24.03 В 3 10 км {гроза} 10/3 500 м
[Cu med, cong Ac trans Cs]
+28.1 +25.4 85 +41 +42 опасность
перегрева
1006.8 1006.3
12 24.03 В 2 10 км {гроза} 10/4 500 м
[Cu med, cong Ac trans Cs]
+27.9 +25.0 84 +40 +40 очень
душно
1008.3 1007.8 +31.2
15 24.03 СВ 3 5000 м гроза, ливневой дождь 10/6 450 м
[Cb cap Ac trans Cs]
+26.8 +26.4 98 +41 +41 опасность
перегрева
1009.7 1009.2 9
18 24.03 СВ 4 5000 м гроза, ливневой дождь 10/8 330 м
[Cb cap Ac trans Cs]
+24.6 +24.4 99 +34 +34 очень
душно
1009.1 1008.6 41
21 24.03 ЮВ 1 8000 м гроза, ливневой дождь 10/8 450 м
[Cb cap Ac trans Cs]
+24.6 +24.4 99 +34 +34 очень
душно
1008.8 1008.4 15

 

Местоположение метеостанции Денпасар (Индонезия): широта -8.75 долгота 115.16 высота над уровнем моря 1 м.

В архиве по умолчанию представлена погода в Денпасаре за последнюю неделю. Архивные данные за месяц целиком и за предыдущие месяцы, начиная с января 2011 года, Вы можете получить, выбрав интересующий диапазон дат из раскрывающегося списка и нажав кнопку "Ввод!".


*Определитесь, кто Вы:
робот инопланетянин человек

Внимание! Время в таблицах - всемирное. Для получения местного времени необходимо прибавить поправку, которая равна 8 ч.

Смотрите также архив погоды в соседних городах и на ближайших метеорологических станциях:

Погода в Матараме (Индонезия) (102 км)
Погода в Банюванги (Индонезия) (104 км)
Погода в Калиянджете (Индонезия) (231 км)
Погода в Сурабая Геданган (Индонезия) (233 км)
Погода в Сумбава-Бесаре (Индонезия) (249 км)
Погода в Аэропорту Джуанда (Индонезия) (306 км)
Погода в Сурабая Перак (Индонезия) (319 км)
Погода в Биме (Индонезия) (390 км)
Погода в Сангкапуре (Индонезия) (427 км)
Погода в Семаранге (Индонезия) (560 км)

Пояснения к столбцам:

Ветер - указаны скорость ветра в м/с - средняя за 10 мин, порывы в срок и между сроками (в фигурных скобках) и направление, откуда дует ветер: С - северный, СВ - северо-восточный, В - восточный, ЮВ - юго-восточный, Ю - южный, ЮЗ - юго-западный, З - западный, СЗ - северо-западный.
Видимость - горизонтальная дальность видимости в метрах или километрах. При видимости от 1 до 10 км при отсутствии осадков обычно наблюдается дымка, при ухудшении видимости до 1 км и менее - туман. В сухую погоду видимость может ухудшаться дымом, пылью или мглою.
Явления - указаны атмосферные явления, наблюдавшиеся в срок или в последний час перед сроком; фигурными скобками обозначены явления, наблюдавшиеся между сроками (за 1-3 часа до срока); квадратными скобками обозначены град или гололедные отложения с указанием их диаметра в мм.
Облачность - указаны через наклонную черту общая и нижняя облачность в баллах и высота нижней границы облаков в метрах; квадратными скобками обозначены формы облаков: Ci - перистые, Cs - перисто-слоистые, Cc - перисто-кучевые, Ac - высококучевые, As - высокослоистые, Sc - слоисто-кучевые, Ns - слоисто-дождевые, Cu - кучевые, Cb - кучево-дождевые. Подробнее классификацию облаков см. в Атласе облаков (PDF).
T - Температура воздуха - температура, измеренная на высоте 2 м над землей.
Td - Температура точки росы - температура, при понижении до которой содержащийся в воздухе водяной пар достигнет насыщения.
f - Относительная влажность воздуха - влажноcть воздуха, измеренная на высоте 2 м над землей.
Te - Эффективная температура - температура, которую ощущает одетый по сезону человек в тени. Характеристика душности погоды. При расчете учитывается влияние влажности воздуха и скорости ветра на теплоощущения человека.
Tes - Эффективная температура на солнце - температура, которую ощущает человек, с поправкой на солнечный нагрев. Характеристика знойности погоды. Зависит от высоты солнца над горизонтом, облачности и скорости ветра. Ночью, в пасмурную погоду, а также при ветре 12 м/с и более поправка равна нулю.
P - Атмосферное давление - приведенное к уровню моря атмосферное давление.
Po - Атмосферное давление - измеренное на уровне метеостанции атмосферное давление.
Tmin - Минимальная температура - минимум температуры воздуха на высоте 2 м над землей.
Tmax - Максимальная температура - максимум температуры воздуха на высоте 2 м над землей.
R - Количество осадков - Количество выпавших осадков за период времени, мм. При наведении курсора мыши на число - период времени, за который выпало указанное количество осадков.
R24 - Количество осадков - Количество выпавших осадков за 24 часа, мм.
S - Снежный покров - Высота снежного покрова, см. При наведении курсора мыши на число - состояние снежного покрова и степень покрытия местности в баллах.